Tracking 25195 objects as of 20-Jan-2022
HD Live streaming from Space Station
objects crossing your sky now

SL-3 R/B

Track SL-3 R/B now!
10-day predictions


NORAD ID: 11289
Int'l Code: 1979-021B
Perigee: 806.1 km
Apogee: 915.8 km
Inclination: 81.2 °
Period: 102.0 minutes
Semi major axis: 7231 km
RCS: 6.216 m2 (large)
Launch date: March 1, 1979
Source: Commonwealth of Independent States (former USSR) (CIS)
Launch site: PLESETSK MISSILE AND SPACE COMPLEX (PKMTR)

Note: This is a ROCKET BODY
aabbcc
Your satellite tracking list
Your tracking list is empty




NASA's NSSDC Master Catalog

Two Line Element Set (TLE):
1 11289U 79021B   22020.54884886  .00000034  00000-0  11191-4 0  9991
2 11289  81.2485 326.6498 0075858 150.2785 210.2729 14.11633482207364
Source of the keplerian elements: AFSPC